RH
74 81 84 86 87 84 84 77 82 51 68 62 76 77 87 92 88 84 39 36 41 46 43 38 27 24 24 23 30 39 39 37 42 45 46 52 50 56 69 74 73 78 79 84
85 85 90 85 86 95 87 81 83 80 79 73 74 94 96 93 94 51 37 42 43 41 41 30 25 25 24 34 40 42 40 43 47 51 57 60 58 64 73 76 79 81 85 88
88 84 94 87 63 64 64 65 78 77 53 74 80 90 95 78 64 46 44 42 38 42 32 26 26 25 34 43 43 42 45 51 54 59 63 68 71 72 75 79 82 83 92 96
93 92 84 54 59 59 60 59 61 60 64 77 95 94 57 49 41 34 34 37 39 32 28 28 27 34 43 44 45 47 56 57 62 66 70 77 80 80 78 80 82 83 90 91
95 81 74 60 51 51 44 49 56 69 73 86 94 51 32 27 30 30 34 34 30 29 30 29 34 44 46 48 49 57 61 65 70 73 76 82 84 80 79 79 83 85 91 91
100 89 72 54 62 64 62 86 58 45 76 23 38 33 27 22 28 29 31 30 32 33 32 34 43 46 50 49 55 62 68 74 78 79 81 84 84 77 75 78 81 85 87 94
99 96 79 73 67 67 95 91 50 17 46 78 53 24 24 30 30 30 31 34 37 36 36 40 43 50 52 52 64 69 75 80 83 83 85 86 86 85 79 75 75 79 80 86
99 96 85 60 77 93 95 95 72 30 76 93 42 32 29 29 31 34 38 42 40 38 40 42 47 56 54 61 70 76 80 82 86 86 88 88 88 90 88 82 76 74 73 75
95 84 89 94 95 96 96 96 92 93 95 75 44 34 32 35 38 41 46 47 45 43 43 46 52 59 56 65 75 82 84 84 86 90 89 91 89 89 85 81 78 77 76 71
94 82 90 95 96 97 97 97 97 94 96 57 55 40 38 40 43 48 52 54 51 47 47 52 56 64 57 69 79 86 87 85 85 86 92 92 93 89 86 82 80 76 73 66
91 89 96 96 94 92 97 97 97 87 67 66 62 43 42 44 45 52 61 58 53 53 52 56 62 69 60 70 82 87 89 83 82 84 84 91 92 91 88 88 88 86 84 73
96 98 98 96 96 96 97 90 44 68 79 75 58 45 45 40 46 64 65 62 59 59 58 60 67 77 62 70 82 87 91 86 78 75 80 83 89 94 100 94 91 94 96 88
97 96 96 96 96 96 34 22 25 51 74 66 47 46 42 44 62 68 69 63 63 68 65 62 70 83 65 64 81 87 88 89 84 76 69 76 85 87 84 98 99 98 99 92
100 98 97 96 96 46 19 15 20 38 50 43 44 44 46 59 69 68 64 64 68 75 72 66 73 89 81 63 74 84 88 89 88 82 72 66 75 88 88 85 80 84 92 88
97 97 96 97 64 19 14 17 26 34 36 40 43 48 62 70 64 62 62 63 71 81 79 70 77 92 91 72 66 77 84 86 87 86 79 68 65 86 90 88 88 88 85 69
15 34 71 40 15 14 16 24 28 29 33 41 51 62 64 56 54 56 58 64 76 86 85 76 79 93 96 87 70 66 71 79 83 82 81 75 64 83 91 90 91 92 90 60
8 10 11 11 13 16 19 21 24 30 40 45 48 48 46 49 53 55 59 67 80 93 91 82 84 96 98 100 95 81 71 67 74 80 78 74 66 82 92 90 92 96 98 77
8 8 9 10 12 15 18 22 28 32 33 36 39 41 46 49 48 52 59 67 78 91 93 89 91 99 100 100 100 96 80 71 65 68 75 74 68 79 93 93 95 96 98 98
9 9 10 12 14 17 20 22 25 29 34 38 42 47 51 54 53 54 59 65 73 85 91 92 93 98 97 98 99 98 95 80 71 64 68 73 70 81 97 96 99 99 98 98
10 10 12 13 13 15 18 22 27 34 42 50 54 60 64 66 66 63 63 66 71 85 94 98 96 100 100 100 100 98 98 86 76 69 68 74 72 85 99 98 100 100 98 98
9 9 9 10 12 14 16 24 33 40 45 50 53 59 66 71 72 71 67 66 73 83 96 100 99 96 100 100 100 98 96 95 79 74 71 76 76 89 100 99 99 99 97 98
7 7 8 8 10 15 21 25 28 35 40 44 51 56 64 70 74 76 76 73 71 80 90 98 99 93 98 95 96 95 96 98 91 79 76 78 80 84 100 100 98 99 100 100
7 7 7 8 11 15 17 21 26 33 39 46 52 58 68 74 78 82 86 83 75 77 86 97 100 100 97 98 98 97 97 98 99 90 85 82 83 81 94 100 97 96 99 100
6 7 8 10 12 14 17 21 28 35 40 44 49 59 69 77 82 88 86 82 78 78 83 91 98 100 100 100 99 99 99 99 99 99 95 89 85 80 80 94 99 100 100 100
7 8 9 11 12 14 17 23 29 37 41 45 48 52 56 60 67 74 79 81 81 82 85 89 96 100 100 100 100 100 100 99 100 100 98 96 87 82 76 84 99 98 98 100
8 9 10 12 14 16 20 24 30 36 42 48 55 60 64 66 65 66 76 80 80 82 86 92 99 100 100 100 100 100 100 100 99 100 100 100 95 86 75 78 96 100 100 100
10 10 11 13 15 18 22 27 34 40 48 53 58 65 71 72 70 69 69 75 80 82 88 96 99 100 100 100 100 100 100 100 100 100 100 100 99 90 74 77 91 100 100 100
Wind_Speed
47 43 43 46 45 30 39 56 31 64 35 42 34 37 37 36 32 31 34 31 31 29 28 30 30 29 30 30 28 27 27 28 29 29 29 28 26 25 24 24 25 26 27 26
42 36 33 40 39 38 48 57 54 66 68 51 47 41 41 42 33 29 30 32 29 27 28 29 28 29 29 27 26 26 26 27 28 27 27 27 25 23 22 22 24 24 24 25
37 23 24 28 37 30 35 41 44 53 48 37 36 36 26 25 27 27 29 28 25 26 27 26 27 28 26 24 25 24 25 25 26 25 26 25 23 21 21 22 22 22 22 23
25 18 11 23 21 26 30 33 31 34 37 33 30 18 20 22 23 23 22 24 25 25 25 25 26 25 23 23 23 22 23 23 24 24 24 23 22 21 21 22 21 21 21 21
8 17 30 37 24 15 20 25 24 24 22 34 20 20 20 19 20 21 22 24 23 23 23 24 23 21 21 21 20 21 21 21 22 23 22 21 20 20 20 21 19 21 21 21
11 7 10 22 22 22 27 25 12 11 9 3 11 20 21 20 20 21 22 20 21 21 21 20 20 19 19 19 19 20 20 20 20 21 21 20 20 19 19 20 19 20 20 20
29 13 22 23 28 27 9 9 4 1 5 8 12 17 19 21 21 19 18 19 19 19 19 19 19 17 17 18 18 18 18 19 19 20 20 20 19 19 20 19 19 19 20 20
13 10 14 27 22 14 19 20 12 15 19 14 15 16 17 17 17 17 16 16 17 18 17 18 17 16 17 16 16 17 18 18 19 19 20 19 19 18 19 19 19 19 19 19
19 22 32 37 40 39 37 21 15 19 17 16 17 16 14 14 15 15 15 15 16 16 17 16 16 16 15 16 14 15 16 17 18 18 19 19 19 19 18 18 19 19 19 18
32 35 33 36 34 33 31 25 22 18 17 19 18 15 13 13 14 14 14 14 14 16 16 16 16 15 15 15 14 14 15 16 17 17 17 18 18 19 19 19 19 19 18 19
40 40 36 27 19 18 20 19 18 17 19 20 19 15 14 13 14 14 13 14 15 15 16 16 16 15 14 14 14 14 14 15 16 16 17 16 16 18 19 20 22 22 22 23
33 26 25 24 24 24 15 12 14 17 19 19 17 15 14 14 14 13 14 15 15 16 16 16 15 15 14 14 14 14 14 14 15 16 16 17 15 12 18 20 21 22 22 24
24 24 21 24 23 14 11 11 12 14 16 17 16 15 15 13 13 14 15 15 16 16 16 16 15 14 14 14 14 14 14 14 14 16 17 17 18 17 12 10 17 21 22 23
26 27 20 16 14 10 7 8 8 10 13 14 15 15 13 13 14 15 16 16 16 15 15 15 14 14 14 14 14 14 14 14 14 15 17 17 18 19 19 20 18 16 17 22
8 9 8 8 7 5 6 6 6 8 11 12 14 14 13 14 15 16 16 16 15 14 14 14 14 13 13 13 14 14 15 14 14 15 16 17 18 19 19 19 21 21 21 20
4 2 3 3 2 4 5 5 6 8 11 12 12 13 14 16 16 16 16 15 14 13 13 14 13 13 13 13 13 14 14 15 14 14 15 16 17 18 17 18 19 21 23 24
5 4 2 0 2 4 5 7 9 10 10 12 13 15 15 16 16 15 14 13 13 12 13 13 13 12 13 13 14 13 14 14 14 14 14 15 16 16 16 17 18 22 24 25
5 5 5 4 4 6 8 9 10 11 13 13 14 14 14 14 14 14 13 12 12 12 12 12 12 11 12 12 13 13 13 13 13 13 12 13 14 14 15 15 18 21 23 25
6 7 7 7 7 8 10 11 12 13 13 12 12 12 13 13 12 13 12 12 13 13 12 12 11 11 12 13 12 13 12 12 12 12 11 11 12 13 14 14 17 19 22 25
6 7 8 9 10 11 11 12 12 12 12 12 13 13 12 12 12 13 13 13 13 13 13 12 12 11 12 13 13 14 13 13 12 12 10 9 10 10 12 13 15 17 20 23
6 8 9 10 11 12 12 12 12 11 11 12 12 12 12 12 12 13 13 13 13 13 13 12 12 10 11 12 13 13 13 12 11 10 10 8 8 9 10 11 13 16 19 21
7 8 10 11 12 12 12 12 12 12 12 12 12 12 12 12 12 13 14 15 14 13 13 13 13 13 10 11 11 12 12 12 11 10 10 9 8 8 10 11 13 16 18 20
6 9 11 12 12 12 13 14 13 12 12 12 12 12 12 12 13 14 16 16 15 14 12 12 12 13 12 12 12 12 12 12 11 10 10 10 9 9 9 11 14 16 18 19
8 10 11 12 13 14 15 15 14 13 13 13 13 13 13 14 15 17 18 17 16 14 13 12 12 12 12 12 12 12 12 12 11 10 10 10 10 9 10 11 13 15 17 18
9 11 12 13 14 15 15 16 15 15 14 14 14 15 15 16 16 16 16 15 14 14 13 12 12 11 11 11 11 12 12 11 11 11 10 10 9 9 10 11 13 14 16 18
11 12 13 13 14 15 16 16 16 16 16 16 16 17 17 17 17 16 15 15 14 13 12 12 11 11 11 10 11 11 11 11 11 10 10 9 9 9 9 10 11 13 15 17
13 14 14 14 15 16 17 17 18 18 19 19 19 19 18 18 17 17 16 15 14 12 11 10 10 10 10 10 11 11 10 10 10 10 9 9 8 7 8 9 10 12 13 16
Wind_Direction
284 277 274 275 268 252 233 252 239 271 256 283 265 267 270 273 274 270 262 271 280 283 287 295 301 303 301 300 300 299 301 303 302 299 299 300 298 294 292 293 298 302 305 306
280 289 283 277 274 260 252 258 251 264 269 273 268 263 268 273 273 269 265 276 274 280 287 297 300 299 299 298 298 298 300 300 298 298 302 303 299 294 293 293 298 303 307 311
279 286 288 280 287 283 277 273 260 255 282 274 274 273 273 270 270 270 267 269 276 284 293 297 297 297 296 295 294 296 299 298 297 303 306 305 303 299 296 296 299 303 309 309
273 290 264 280 292 291 283 281 278 279 272 274 278 280 275 264 263 263 267 275 283 291 293 294 295 295 293 290 291 297 298 298 302 307 308 307 307 302 299 297 299 303 303 307
254 263 281 292 292 293 302 302 301 288 264 259 287 287 276 270 270 272 278 284 287 289 289 292 294 293 289 288 294 296 299 302 305 309 310 310 309 304 300 299 303 302 302 303
236 245 270 295 294 299 305 306 316 293 280 315 300 284 279 277 277 279 283 284 284 285 290 293 293 289 287 291 294 299 303 306 309 310 312 314 313 310 306 306 308 305 303 303
241 251 272 275 289 293 291 303 264 6 350 309 291 284 277 279 280 278 280 281 283 287 292 295 291 289 289 288 294 299 305 311 311 312 316 317 316 315 316 314 313 310 307 305
221 233 261 279 286 284 303 286 236 269 285 308 301 287 280 275 275 277 279 283 286 290 296 294 295 292 285 286 293 302 309 314 316 315 317 318 319 319 318 319 320 316 311 309
247 268 277 287 292 296 300 272 254 271 294 309 301 300 283 278 279 280 282 285 290 296 299 300 296 290 283 284 293 303 311 315 318 320 320 319 320 320 320 322 322 322 318 315
275 285 284 291 293 295 293 275 291 280 294 291 301 299 287 286 285 286 287 292 299 300 303 302 296 290 283 282 293 302 310 316 320 323 324 323 321 321 323 324 324 325 326 325
282 286 290 296 303 305 279 275 272 288 271 285 297 294 291 291 290 288 292 300 299 304 307 301 298 293 287 284 290 299 309 317 322 325 329 329 325 324 325 326 326 331 332 331
278 283 286 292 302 297 278 281 278 264 266 280 291 291 292 294 289 293 298 297 304 306 304 304 300 294 288 282 284 294 304 314 322 326 329 332 333 329 324 326 326 328 329 328
280 285 281 289 298 282 288 279 265 257 265 278 285 288 292 291 294 294 296 304 303 303 303 303 300 296 288 283 282 290 299 309 319 326 330 333 336 333 331 321 324 324 326 327
283 281 283 281 280 281 291 288 275 262 266 275 282 289 293 291 292 296 301 299 299 301 303 306 303 297 292 289 285 286 294 302 313 322 328 333 336 336 335 336 339 337 332 330
286 262 248 263 262 291 295 286 272 267 274 281 290 291 292 294 295 298 297 296 296 301 304 306 304 300 296 293 290 288 290 295 303 312 322 330 335 338 338 339 341 343 343 343
348 209 186 228 290 298 295 291 287 286 293 292 293 295 295 295 296 294 293 294 297 301 304 306 307 305 303 299 297 297 295 294 297 304 314 325 332 338 340 342 347 350 353 351
69 88 101 28 311 314 315 308 304 300 301 302 299 296 296 295 293 293 295 296 298 301 305 308 312 309 305 304 300 299 301 298 294 296 305 318 330 336 340 346 352 357 358 357
50 51 39 18 352 329 319 312 314 313 306 298 295 295 295 294 297 298 299 299 301 303 307 310 313 311 307 310 307 305 302 303 299 293 298 311 323 333 340 344 350 355 360 1
35 21 8 357 345 335 329 323 314 305 302 298 295 294 294 298 304 304 306 305 305 307 308 310 313 314 315 317 317 316 312 304 303 304 297 304 318 330 338 340 344 350 356 0
22 7 359 352 344 335 328 322 315 309 304 298 292 291 295 301 308 310 311 309 306 304 305 308 312 316 309 312 316 316 316 312 301 303 298 298 311 325 336 338 343 348 353 357
10 1 354 344 340 339 333 328 323 318 308 302 297 297 299 302 307 312 314 313 307 302 299 301 303 308 306 308 310 310 308 311 303 299 298 292 301 313 327 336 341 348 352 355
358 350 350 345 341 337 339 337 332 324 318 314 311 309 305 301 304 309 314 315 310 303 298 300 304 309 306 305 311 313 314 313 310 300 298 287 286 297 313 325 332 338 343 346
350 351 340 338 337 342 346 341 336 331 329 327 322 316 310 305 304 306 310 311 310 304 298 296 297 302 312 313 316 317 316 313 312 303 299 290 285 288 303 317 326 333 339 342
347 332 330 334 339 344 344 340 336 332 329 327 325 321 317 312 308 306 306 306 305 302 299 296 298 302 307 309 313 315 315 314 312 308 302 296 289 288 296 311 322 329 336 339
327 322 325 332 339 340 339 338 334 330 326 324 322 319 317 315 313 311 309 306 304 301 299 296 295 299 304 307 313 317 317 317 314 313 307 303 297 294 299 311 322 330 337 341
316 317 321 329 334 334 335 335 332 328 325 323 321 317 314 311 309 310 310 308 305 303 299 296 297 301 305 308 316 318 319 319 317 315 312 307 302 297 299 311 323 330 335 339
310 314 319 323 328 331 333 333 330 327 324 323 319 316 311 307 304 303 304 307 306 303 299 295 297 302 306 313 319 320 320 320 319 318 317 314 310 303 302 314 328 333 338 343